Location: Newark
(42.8481°N, 0.4872°E)
Time: 08:44:55
(UTC+00:00)

Vanguard 3 - Pass Details

Date: 27 October 2020
Orbit: 508 x 3262 km, 33.3° (Epoch: 27 November)

Event Time Altitude Azimuth Distance (km) Brightness Sun altitude
Rises 03:45:11 0° 205° (SSW) 5,958 - -30.0°
Exits shadow 03:46:02 - 203° (SSW) 5,815 11.2 -29.9°
Reaches altitude 10° 03:49:26 10° 195° (SSW) 5,301 11.0 -29.3°
Maximum altitude 04:03:11 32° 141° (SE) 4,488 11.1 -26.8°
Drops below altitude 10° 04:18:58 10° 88° (E) 6,134 12.7 -23.9°
Sets 04:24:17 0° 80° (E) 6,996 13.4 -22.9°
